Regional Weather Roundup
Issued by NWS

Home | Current Version | Previous Version | Text Only | Print | Product List | Glossary Off
Versions: 1 2 3 4 5 6 7 8 9 10 11 12 13 14 15 16 17 18 19 20 21 22 23 24 25 26 27 28 29 30 31 32 33 34 35 36 37 38 39 40 41 42 43 44 45 46 47 48 49 50

000
ASUS45 KCYS 221510
RWRWY

WYOMING REGIONAL WEATHER ROUNDUP
NATIONAL WEATHER SERVICE CHEYENNE WY
900 AM MDT SUN OCT 22 2017

NOTE:  "FAIR" INDICATES FEW OR NO CLOUDS BELOW 12,000 FEET
WITH NO SIGNIFICANT WEATHER AND/OR OBSTRUCTIONS TO VISIBILITY.

WYZ001-221600-
YELLOWSTONE NATIONAL PARK

CITY           SKY/WX    TMP DP  RH WIND       PRES   REMARKS
LK YELLOWSTONE   N/A     32  32 100 VRB5      30.20S WCI  27
W YELLOWSTONE  NOT AVBL

$$
WYZ002>013-054>058-071-098>099-221600-
NORTHERN WYOMING

CITY           SKY/WX    TMP DP  RH WIND       PRES   REMARKS
JACKSON        CLOUDY    39  31  72 S20G25    30.26R WCI  29
CODY           FAIR      53  29  39 SW21G33   30.02R
GREYBULL       FAIR      33  21  61 SE5       30.05R WCI  29
WORLAND        FAIR      32  24  72 CALM      30.04R
SHERIDAN       FAIR      44  25  47 CALM      29.90R
BUFFALO        PTSUNNY   54  20  26 CALM      29.94R
GILLETTE       FAIR      49  23  36 SW23      29.93R
HULETT         FAIR      45  19  36 SW12      29.95R
NEWCASTLE      FAIR      34  23  64 E12       30.02S WCI  25

$$
WYZ014>020-022>026-101>103-221600-
CENTRAL WYOMING

CITY           SKY/WX    TMP DP  RH WIND       PRES   REMARKS
BIG PINEY      FAIR      26  20  77 CALM      30.32R
PINEDALE       FAIR      34  27  75 NW7       30.31S WCI  28
DUBOIS         FAIR      39  28  65 NW24G38   30.18R WCI  28
LANDER         FAIR      40  24  53 VRB3      30.09R
RIVERTON       FAIR      39  21  48 S8        30.10R WCI  33
CASPER         FAIR      45  22  40 SW22G33   30.10S
DOUGLAS        FAIR      52  22  30 W21G29    30.05R

$$
WYZ021-027>030-104>119-221600-
SOUTHERN WYOMING

CITY           SKY/WX    TMP DP  RH WIND       PRES   REMARKS
EVANSTON       FAIR      40  21  46 SW20      30.38R WCI  30
KEMMERER       FAIR      36  21  55 W15G24    30.35R WCI  26
FORT BRIDGER   FAIR      44  25  48 W22G31    30.38R
ROCK SPRINGS   CLOUDY    43  24  47 SW9       30.34R
DIXON          CLOUDY    40  20  45 S8        30.41R WCI  34
RAWLINS        PTSUNNY   40  22  48 W9G20     30.28S WCI  34
SARATOGA       FAIR      41  27  56 SW26G32   30.30S
LARAMIE        FAIR      44  22  41 W17G24    30.21R
CHEYENNE       FAIR      48  22  35 W24G39    30.16R
TORRINGTON     FAIR      53  22  29 W22G29    30.07R
PINE BLUFFS    FAIR      50  23  34 W3        30.17R

$$



USA.gov is the U.S. government's official web portal to all federal, state and local government web resources and services.